Theta_e
335 324 318 318 318 318 318 317 317 317 317 316 316 316 316 317 318 320 323 326 326 323 320 320 320 321 321 320 319 317 315 314 313 313 312 311 311 311 314 319 328 333 325 319 318 320 323 322 321 317 314 313 313 313 312 313 313 313 314 316 320 325 327 328 329 329 330 330 329 330 331 326 323 325 326 326 326 326 326 326 326 326 327 328 327
330 324 318 318 318 318 318 317 317 316 317 316 316 316 316 316 317 320 324 326 323 319 318 318 318 319 318 315 313 311 311 310 309 310 310 313 312 313 320 325 332 333 322 317 317 319 321 322 319 314 313 313 313 313 312 312 313 313 315 319 324 327 329 330 330 330 330 330 330 331 331 327 323 325 326 326 326 326 326 326 327 327 328 329 329
329 327 319 318 318 318 318 317 317 316 316 316 316 316 316 316 317 321 326 327 322 318 316 316 317 317 315 312 310 309 309 308 309 309 314 322 320 322 327 327 332 331 319 316 317 318 320 319 316 313 313 313 313 313 313 313 313 313 317 322 325 328 329 329 330 330 330 330 330 330 331 328 325 325 326 325 326 326 327 328 328 329 329 329 329
334 331 319 319 318 317 319 317 317 316 316 316 316 316 316 316 317 321 326 327 322 318 317 317 317 315 313 310 309 309 309 308 309 309 317 325 323 326 329 329 332 327 317 316 316 317 317 316 313 313 314 313 313 312 313 313 313 315 318 322 324 327 328 328 329 329 329 329 329 329 330 329 327 325 325 325 325 327 328 329 329 329 329 329 329
337 336 323 318 319 318 318 317 317 316 316 316 316 316 316 316 318 321 324 326 322 317 317 318 315 313 311 309 309 309 309 309 309 310 319 325 323 324 325 328 331 322 315 316 315 315 314 314 313 313 314 313 313 313 313 313 314 317 318 321 325 327 327 328 329 329 328 328 328 329 329 329 328 326 325 325 326 327 328 329 330 330 329 328 330
337 338 331 321 318 319 318 318 317 316 317 316 317 316 316 316 318 321 322 323 320 317 317 316 314 312 310 310 309 309 309 309 310 312 320 325 326 327 325 325 324 318 315 315 315 314 313 313 313 313 313 313 313 313 313 314 317 318 320 324 327 327 327 330 330 329 328 328 328 329 329 330 329 328 326 325 327 328 328 329 329 329 327 325 327
337 337 339 327 318 318 318 318 316 317 317 316 317 317 318 316 319 321 321 321 318 317 317 315 313 312 310 310 309 309 309 310 311 313 322 328 329 330 328 325 320 316 315 314 314 313 314 313 313 314 313 313 313 313 313 316 318 318 322 327 329 328 328 330 331 330 328 329 329 330 330 330 329 330 327 325 328 328 329 329 329 328 325 323 323
341 339 340 329 318 318 318 318 317 317 317 316 316 317 317 317 319 320 320 319 317 318 317 314 313 312 310 310 309 309 309 311 312 314 323 330 331 329 328 326 319 316 315 314 314 313 314 313 313 313 313 313 313 313 314 318 318 318 324 328 330 330 330 330 331 331 329 329 330 330 330 330 331 331 328 326 329 329 329 329 329 328 326 324 324
343 340 336 326 318 318 318 318 318 317 317 316 316 316 316 317 318 320 319 318 318 318 316 314 313 312 311 310 310 310 309 310 312 314 321 328 330 328 329 326 318 315 314 314 314 313 314 313 313 313 313 313 313 313 315 318 317 317 323 327 329 330 330 329 331 331 329 330 331 331 331 331 331 331 328 327 330 329 330 329 329 328 327 325 326
343 337 329 321 318 318 318 318 318 317 317 316 316 316 315 317 317 318 318 318 318 318 315 314 313 312 311 310 310 310 309 310 313 315 318 326 329 330 329 324 316 315 314 314 313 313 313 313 313 313 313 313 313 313 316 319 316 317 323 327 328 329 330 329 330 331 330 330 331 331 331 331 332 330 328 329 330 329 330 329 329 328 327 325 326
342 335 323 318 319 318 318 319 318 317 317 316 316 315 316 316 316 317 317 318 319 317 315 314 313 312 311 310 310 310 310 310 312 315 318 324 328 330 328 320 315 315 314 314 314 313 313 313 313 313 313 313 313 314 317 318 315 316 323 327 328 329 329 329 330 330 331 330 331 332 331 332 331 329 329 330 330 330 330 328 328 327 326 326 326
342 338 326 319 319 318 318 319 318 317 317 316 316 315 316 316 316 316 317 320 318 316 314 313 313 312 310 310 310 310 310 310 311 314 316 321 325 328 324 317 314 314 314 314 314 313 313 313 313 313 313 313 313 315 317 317 314 315 321 327 329 329 329 330 330 330 330 330 331 332 331 331 330 329 329 330 330 330 329 328 328 327 326 326 327
342 340 329 320 319 318 319 319 318 317 317 317 316 316 316 316 316 316 318 319 317 315 313 313 313 312 311 310 310 310 310 310 311 313 314 318 321 323 320 315 314 314 314 314 313 313 313 313 313 313 313 314 315 316 318 317 314 314 320 326 328 328 329 331 330 330 331 331 332 331 331 331 330 329 330 330 330 330 329 329 329 328 328 327 328
337 335 328 320 319 319 319 319 319 317 317 317 316 316 316 316 316 317 319 318 316 314 312 313 312 312 311 310 310 310 310 310 310 312 313 314 316 318 317 314 314 313 314 314 314 313 313 313 313 313 314 315 316 317 317 316 314 314 316 323 328 327 329 331 330 331 332 332 332 331 331 330 329 329 329 329 329 329 329 330 329 329 330 329 329
332 326 323 320 318 319 320 319 319 318 318 317 317 317 317 317 317 318 319 316 314 313 312 312 312 312 311 310 310 310 310 310 311 312 312 313 313 315 314 313 313 313 313 313 313 313 313 313 313 313 314 316 318 318 316 314 314 313 313 317 323 326 329 331 331 331 332 333 333 332 332 331 329 329 328 328 328 328 329 330 329 329 330 329 329
335 326 320 320 319 319 320 320 320 319 319 318 317 317 318 318 318 318 318 315 313 311 312 312 312 312 311 311 310 310 310 310 311 311 312 312 313 313 313 313 313 313 313 313 313 313 313 312 313 314 316 318 317 315 313 312 312 312 312 312 317 323 326 329 331 331 331 332 333 333 333 330 329 328 327 327 327 328 329 329 329 330 330 329 329
341 334 324 320 320 319 320 321 322 321 320 318 317 317 319 319 318 318 317 313 311 311 311 312 312 312 311 311 310 310 310 311 311 311 312 312 312 313 313 313 312 313 312 313 313 312 313 313 315 316 317 316 314 312 311 311 312 312 313 315 321 324 325 329 331 331 331 332 332 333 332 330 328 328 327 326 327 329 329 329 329 330 330 329 329
342 340 333 323 320 320 319 321 323 322 321 319 318 317 319 319 317 316 314 312 310 310 310 311 311 311 311 311 310 310 310 311 311 311 311 312 312 312 313 313 312 312 312 313 313 313 314 315 316 316 315 312 311 312 313 313 313 314 315 318 326 328 327 330 331 331 332 332 332 333 332 329 328 327 327 327 328 329 329 329 329 330 329 330 329
340 339 338 329 322 320 320 321 323 322 321 320 319 318 319 319 317 315 313 311 310 310 310 310 310 311 311 311 311 310 310 310 311 311 311 311 312 312 312 312 312 312 313 313 313 314 315 315 315 314 312 310 314 319 319 317 316 319 320 323 328 329 329 330 331 332 333 332 333 333 332 329 327 327 327 328 329 329 329 329 329 330 329 329 330
336 331 334 330 324 321 319 321 322 322 321 321 320 319 320 319 318 316 313 311 310 309 310 310 310 311 311 311 311 311 311 310 310 311 311 311 311 311 312 312 313 312 313 313 314 314 314 313 312 311 310 313 322 327 326 323 323 325 327 329 330 330 330 332 332 333 333 332 333 332 331 329 327 327 328 329 329 330 329 329 330 330 329 329 330
332 329 332 327 324 322 319 321 322 322 322 322 322 320 320 320 318 316 314 311 310 309 309 309 310 311 311 311 311 312 312 311 310 310 310 311 311 311 311 312 312 312 313 313 313 312 312 311 310 310 310 318 330 332 330 330 329 330 331 332 332 332 333 333 334 333 333 333 332 331 330 328 327 327 329 329 330 330 329 329 330 330 329 329 330
332 332 335 329 324 322 320 321 323 323 323 323 323 321 320 320 318 317 314 310 309 309 309 309 310 311 312 312 312 312 312 311 310 310 310 310 310 310 310 311 311 311 311 311 311 310 310 310 310 311 312 323 333 333 333 333 332 333 333 333 333 333 333 333 334 333 333 333 331 331 329 327 326 328 330 329 330 331 330 330 330 329 329 329 329
334 333 338 331 323 322 323 323 323 323 324 325 325 323 321 319 318 317 314 310 309 309 309 309 310 311 312 313 315 315 314 313 312 311 311 311 310 310 310 310 310 310 310 310 310 310 311 311 312 317 321 327 333 334 334 334 334 335 334 334 333 333 333 334 333 333 334 333 331 330 328 326 327 329 330 330 330 330 330 330 329 328 328 329 328
336 337 338 332 325 325 328 327 325 326 327 328 328 325 322 320 318 316 313 310 309 309 309 309 310 312 314 318 321 323 321 319 318 316 313 311 311 310 310 310 310 310 310 310 312 313 314 314 319 327 331 331 333 334 334 335 335 335 335 334 333 333 334 334 334 334 334 332 331 329 327 327 328 329 330 330 330 329 329 330 329 329 328 328 328
338 340 339 337 334 333 335 332 327 329 331 331 332 329 325 321 319 316 313 310 309 309 309 309 311 313 316 323 327 328 326 325 326 325 321 317 315 313 311 311 311 311 313 315 319 322 322 322 327 333 334 334 334 334 334 335 335 335 335 334 334 334 334 334 334 334 333 331 329 328 327 327 329 329 329 329 330 329 329 329 329 329 329 328 327
340 341 339 339 339 338 340 338 331 332 334 334 333 332 330 325 319 315 313 310 309 309 309 310 312 314 317 323 329 331 329 329 330 331 329 326 323 319 315 313 315 317 321 325 327 329 330 330 332 334 335 335 335 334 334 334 334 334 334 334 334 334 334 334 333 333 332 329 327 327 327 328 328 328 328 329 329 328 328 328 328 328 328 327 325
341 341 340 339 340 339 340 340 336 335 336 336 335 334 333 331 324 317 313 310 309 309 310 311 314 316 319 324 329 332 331 331 332 332 332 330 328 327 323 321 323 327 330 331 331 332 334 334 334 335 336 335 334 334 334 334 335 334 334 334 334 334 334 333 332 332 331 328 327 327 327 328 327 327 328 328 328 327 327 326 326 325 325 324 322
341 340 340 340 340 340 340 341 338 335 337 337 336 335 333 331 327 320 314 310 308 309 310 312 315 318 322 326 328 330 331 332 333 333 333 331 331 331 329 328 330 331 332 332 332 333 334 335 335 336 336 335 334 334 334 334 335 334 334 334 334 334 333 332 331 331 329 327 327 327 327 327 327 326 326 326 325 325 325 324 324 322 321 319 315
341 340 341 340 340 340 341 341 338 337 337 336 336 335 332 328 324 320 314 311 309 310 311 313 319 323 325 326 327 329 331 333 334 333 333 331 332 332 331 331 331 332 331 331 332 333 334 334 335 335 335 335 334 334 334 334 334 334 334 334 333 333 332 332 331 330 329 327 326 326 326 326 326 325 324 324 323 322 321 320 318 316 312 308 304
341 341 341 341 340 341 341 341 339 338 337 337 336 335 332 328 324 318 312 310 310 310 312 317 321 324 325 325 326 330 333 334 334 334 333 332 332 332 331 331 331 331 331 331 331 332 333 334 335 335 335 335 334 334 334 334 334 334 334 334 333 332 332 331 330 329 327 325 325 325 325 325 324 324 323 320 317 314 312 310 308 305 303 301 301
341 341 341 340 340 341 342 341 340 340 339 337 336 335 332 330 328 322 314 315 317 315 315 319 322 323 324 325 329 332 334 335 335 335 334 333 333 334 332 331 331 331 332 332 331 332 333 335 335 335 335 335 334 334 334 334 334 333 334 334 333 332 332 331 330 328 327 325 324 324 324 324 323 322 318 311 307 305 303 302 302 301 301 300 300
341 341 341 340 340 341 341 341 340 340 339 337 336 336 333 331 332 329 323 322 323 322 319 320 323 324 325 327 331 333 333 334 335 335 335 334 334 334 333 332 332 332 332 333 332 332 334 335 335 335 335 335 335 334 334 334 333 333 334 334 333 332 332 331 330 328 327 326 325 324 324 322 321 316 309 303 302 301 301 301 301 301 301 300 300
342 341 340 340 340 341 341 341 340 340 339 337 336 336 334 332 333 333 330 326 324 323 322 322 324 326 326 328 331 333 333 333 333 333 333 333 334 334 333 333 334 333 332 332 331 331 334 335 335 335 335 334 335 334 334 333 333 333 333 332 332 332 331 330 329 329 327 326 325 324 323 321 315 307 302 301 301 301 301 301 301 301 300 300 300
342 341 340 340 340 340 341 341 341 340 338 336 336 336 335 333 334 334 332 330 327 324 324 325 326 326 327 329 331 332 333 332 332 331 330 330 332 333 333 334 334 332 332 331 329 330 332 334 335 335 334 334 334 334 334 333 333 332 332 332 331 331 330 329 329 328 327 325 324 323 323 318 308 302 301 301 301 301 301 300 300 300 300 299 299
343 342 340 339 340 340 340 340 340 340 337 335 336 336 336 334 335 335 332 331 329 328 328 327 327 326 326 330 332 333 333 332 331 330 329 330 331 333 333 333 333 332 332 331 329 330 331 332 334 334 334 334 334 333 333 333 332 332 331 331 331 330 330 329 329 327 326 324 323 324 320 310 302 301 302 301 301 301 301 300 300 300 299 299 299
343 342 341 339 339 339 339 340 340 340 338 336 336 337 336 334 335 335 332 329 328 329 331 330 329 327 328 332 333 334 334 332 331 330 330 331 331 333 334 333 333 332 332 330 328 329 330 332 334 333 333 333 333 333 332 332 332 331 331 331 330 330 329 328 327 325 324 323 323 321 312 303 301 301 301 301 301 300 300 300 300 299 299 299 298
344 343 342 340 339 339 339 339 339 339 338 337 337 338 336 335 336 334 330 329 328 329 331 333 331 327 329 332 332 334 334 332 331 330 330 330 330 332 333 333 332 332 331 329 327 327 330 333 333 332 333 332 332 333 332 331 331 331 331 330 329 328 327 326 324 324 323 321 318 311 303 301 301 301 300 300 300 300 300 300 299 299 299 299 298
344 343 342 341 340 339 339 339 339 339 338 336 337 337 336 335 336 332 329 330 331 331 332 333 331 327 329 332 332 333 333 331 331 330 331 331 330 330 331 331 330 331 331 330 328 327 330 333 332 332 332 331 332 332 331 331 330 330 328 326 326 325 324 323 323 323 320 315 308 302 300 301 300 300 300 300 300 300 299 299 299 299 299 298 298
344 343 343 341 340 339 339 339 338 338 337 335 336 337 337 336 335 332 331 333 333 333 333 332 330 329 332 333 333 333 333 332 331 331 331 331 331 330 330 330 330 330 331 332 331 331 332 332 332 333 332 331 332 331 330 330 329 329 327 325 324 323 323 322 322 321 315 307 302 300 301 300 300 300 300 300 299 299 299 299 298 298 298 298 298
344 343 343 342 341 340 339 339 338 338 337 335 336 338 337 336 334 332 332 334 334 335 334 332 331 332 334 334 334 333 334 333 332 331 332 331 331 331 330 330 330 329 329 331 331 331 332 332 332 333 332 331 330 330 330 330 329 329 326 324 323 323 323 321 319 314 307 302 301 301 301 301 300 300 299 299 299 298 298 298 298 298 298 297 297
345 343 343 342 341 341 339 339 339 338 338 336 335 337 338 337 334 333 333 334 335 335 334 332 333 334 334 334 335 334 334 333 332 332 332 331 331 331 330 329 329 329 328 329 329 328 330 332 332 332 332 331 330 330 330 330 330 328 324 323 323 323 321 317 312 307 304 303 302 302 303 302 301 300 300 299 298 298 298 298 298 297 297 297 297
345 344 343 342 342 341 340 340 339 338 339 336 335 336 337 336 333 333 333 334 335 334 332 331 334 335 335 335 335 334 334 333 332 333 332 331 331 330 330 328 327 328 328 328 328 327 328 331 331 329 329 331 330 329 330 330 329 325 321 321 322 321 318 313 309 307 305 304 304 303 303 303 301 300 300 299 299 298 298 298 298 297 297 297 297
344 343 343 343 342 341 340 340 339 339 339 337 335 334 335 335 332 332 333 334 335 334 332 333 335 336 336 336 335 334 334 332 332 333 332 332 331 331 330 329 328 329 328 328 328 328 330 332 330 327 327 329 330 330 330 328 325 322 319 320 321 319 315 312 310 308 306 305 304 304 304 303 301 300 299 299 299 298 298 298 298 298 297 297 297
345 343 343 343 342 341 341 340 339 339 339 337 336 334 334 334 333 332 334 335 335 334 334 336 336 336 337 335 334 334 333 332 333 333 332 332 332 332 331 330 330 330 329 329 330 331 332 332 330 328 326 327 328 329 329 326 321 320 320 320 320 317 314 312 310 308 306 305 305 304 304 302 301 300 300 299 299 299 299 298 298 298 297 297 297
344 343 342 342 342 342 341 340 340 339 339 338 335 334 333 333 334 334 335 336 336 335 336 336 336 337 336 335 334 334 333 333 333 333 332 332 331 332 331 331 331 331 331 331 332 332 333 333 331 328 327 327 327 328 328 324 321 321 321 321 320 317 317 316 311 308 306 305 304 305 304 302 300 300 300 299 298 299 299 298 298 297 297 297 297
342 342 341 342 342 342 340 340 340 340 339 337 334 333 333 332 333 335 336 337 337 336 336 336 336 336 336 335 334 334 333 333 333 332 332 331 331 332 332 331 332 331 332 332 332 332 332 332 330 327 326 326 326 327 327 324 322 323 324 323 322 321 321 319 311 306 305 305 305 304 302 300 299 300 300 298 298 299 298 298 298 298 298 297 297
341 342 342 342 342 342 340 339 339 340 340 337 333 331 331 331 334 336 337 337 337 336 336 336 336 336 335 335 334 334 333 333 333 332 332 332 332 332 332 332 331 331 331 331 331 330 329 329 328 326 326 326 325 325 325 324 322 322 324 324 325 325 324 321 314 308 306 306 306 304 300 299 301 302 301 299 299 299 299 299 300 299 299 299 298
341 343 343 343 342 341 339 339 339 340 340 338 332 329 329 330 334 337 338 337 337 336 336 336 336 335 334 335 335 334 333 333 333 333 333 333 333 333 332 331 330 329 328 328 329 328 328 327 326 326 325 325 324 323 324 325 322 320 322 323 325 325 323 321 318 312 310 309 307 305 302 301 304 304 303 301 300 300 300 300 300 300 300 300 299
341 342 342 342 342 341 339 338 339 339 341 339 333 328 328 329 333 337 338 337 337 336 336 336 336 335 335 335 335 334 333 333 333 333 333 333 333 332 332 330 328 326 326 327 328 327 327 326 325 325 324 323 323 323 323 323 323 321 320 322 325 326 322 319 316 313 312 311 309 307 305 304 306 306 303 301 301 301 301 301 301 300 300 300 300
341 341 342 343 342 341 339 339 339 338 340 339 334 329 327 329 333 337 338 338 337 337 336 336 335 335 335 335 334 333 333 333 333 333 333 333 332 332 331 328 326 326 326 327 328 326 326 325 324 323 323 323 323 323 321 321 322 321 320 320 320 321 321 318 316 314 313 312 310 309 308 306 307 307 304 302 302 301 301 301 301 300 300 300 300
343 343 343 343 342 341 340 339 339 339 340 340 337 331 328 329 333 336 338 338 337 337 336 336 335 335 335 335 334 333 332 332 332 333 333 332 331 331 330 327 326 327 327 327 327 325 325 324 322 319 319 320 321 321 320 320 318 314 313 314 314 316 319 319 317 315 314 312 309 309 308 307 308 307 303 301 302 301 301 301 300 300 300 300 301
Wind_Speed
20 21 20 18 18 17 16 15 14 13 14 13 12 11 12 12 12 11 11 12 12 11 10 9 10 10 9 8 7 6 5 5 5 5 7 7 7 9 9 13 17 15 15 18 19 20 21 20 19 19 19 18 17 16 15 14 14 14 14 14 14 14 14 14 14 14 14 15 17 18 19 19 20 19 19 19 19 19 18 18 17 16 17 17 17
24 22 20 19 18 17 16 15 14 14 14 13 12 11 11 12 12 12 12 12 11 11 10 9 10 9 9 8 7 6 6 6 7 9 11 11 11 11 11 15 17 15 17 20 20 21 20 20 19 19 18 17 16 15 14 14 14 14 13 13 13 14 14 14 13 13 13 14 16 17 18 18 20 19 19 19 19 19 18 18 18 17 18 18 17
24 23 21 19 18 17 16 15 15 14 14 13 12 11 11 12 12 12 12 12 11 11 10 10 10 9 9 8 8 8 8 9 10 11 12 12 12 12 12 15 16 15 19 21 21 21 20 20 19 18 17 16 15 14 13 13 13 13 13 13 13 13 13 13 12 12 13 14 15 16 17 17 20 21 19 19 19 19 18 19 19 19 19 18 18
22 22 22 20 19 17 16 16 15 15 14 13 12 11 11 12 12 12 12 11 11 11 10 10 10 9 9 9 9 10 9 9 11 12 12 12 11 11 11 13 14 16 21 22 22 22 22 21 19 18 16 15 14 13 13 13 13 12 12 12 12 12 13 13 12 12 13 14 14 15 16 16 19 21 20 20 19 19 18 18 18 18 18 18 17
19 19 20 20 20 18 17 16 16 15 14 14 12 11 11 12 13 12 12 11 11 11 11 11 10 9 9 9 10 10 10 10 11 11 13 12 11 12 12 13 15 19 22 23 23 23 22 20 19 17 15 14 13 12 12 12 12 12 11 11 11 11 12 12 11 11 12 14 13 14 15 15 18 20 20 20 19 18 18 17 17 17 17 17 16
18 18 18 19 20 19 18 17 16 16 15 14 12 11 11 11 13 13 12 11 11 11 11 11 10 9 9 9 10 11 10 10 10 11 13 14 12 12 12 14 17 20 22 23 23 22 21 20 18 16 15 14 13 12 11 12 12 11 11 11 11 11 12 12 10 10 11 13 13 14 14 14 16 19 20 19 18 18 17 16 16 16 16 16 16
17 18 18 19 20 20 18 17 17 16 15 14 12 11 11 12 13 13 13 11 11 11 11 11 10 10 10 9 10 10 10 10 11 11 15 15 14 12 11 14 18 20 22 23 23 22 21 19 17 15 14 13 12 11 11 11 11 11 11 11 11 10 10 11 9 8 9 11 12 13 13 13 15 17 19 18 18 17 17 17 16 17 17 16 16
17 17 19 20 21 20 19 18 17 16 16 14 13 12 12 12 13 13 13 12 11 12 12 11 10 10 10 10 10 10 10 10 10 11 14 15 14 13 13 15 18 20 22 22 22 21 20 18 16 15 13 12 11 10 10 10 10 10 11 11 10 9 8 8 7 5 7 10 11 12 11 12 14 16 19 18 17 17 16 16 16 16 16 16 16
17 17 20 23 22 21 19 18 17 16 16 15 14 12 12 12 13 13 13 12 11 12 12 11 10 10 10 10 10 9 10 10 10 10 13 16 15 15 14 15 19 21 22 22 22 21 19 17 15 13 12 10 10 9 9 9 9 9 10 10 9 9 7 5 4 3 6 8 8 10 10 12 14 16 17 16 15 15 15 15 15 16 16 16 16
17 17 21 24 22 21 20 18 17 16 16 15 14 13 13 13 13 13 13 12 12 12 12 11 11 10 9 10 10 9 9 10 10 11 13 16 15 14 14 16 19 20 20 21 21 19 17 16 14 12 11 9 8 8 8 8 8 8 9 9 7 6 4 4 3 2 6 6 6 8 9 11 13 15 16 14 14 14 14 14 15 15 16 16 16
16 18 21 23 22 21 20 18 17 16 16 16 15 13 13 13 13 13 13 12 13 13 12 12 11 10 9 9 10 9 9 10 10 12 13 15 15 14 14 17 20 19 20 20 19 18 16 15 13 11 10 8 7 7 7 7 7 7 8 7 6 4 2 2 2 2 5 5 5 7 8 10 12 14 14 13 13 13 13 14 14 14 15 16 16
16 18 21 23 22 21 19 18 17 16 16 16 15 14 13 13 13 13 13 13 13 13 12 11 10 10 10 10 9 10 9 9 10 12 13 14 14 14 16 19 20 19 20 20 18 17 15 14 12 10 9 7 6 6 6 7 7 6 6 6 5 2 4 3 3 2 3 4 4 6 8 10 13 14 13 12 12 12 13 13 13 13 15 15 14
16 19 22 24 22 20 19 18 17 17 16 16 15 14 13 13 13 13 13 13 14 13 12 11 10 10 10 10 9 10 10 9 10 11 13 13 13 15 18 19 19 19 19 19 18 16 15 13 11 10 8 7 6 6 6 6 6 5 5 5 4 2 4 4 3 4 4 5 5 6 8 11 13 13 12 12 12 12 13 12 12 13 14 15 14
14 20 23 24 22 20 19 18 18 17 16 16 15 15 14 13 13 13 13 13 13 13 12 11 11 10 10 10 9 9 10 9 10 10 12 13 14 16 19 19 19 18 18 18 16 15 14 12 10 9 7 6 5 5 5 5 5 4 4 4 4 2 3 2 2 2 3 5 6 8 9 12 13 12 12 12 12 12 12 11 12 12 13 14 14
9 18 21 23 22 20 19 18 18 17 17 16 15 15 14 14 14 13 13 13 13 12 12 11 11 11 10 10 9 9 10 10 10 11 12 14 15 17 19 19 18 18 17 16 15 14 13 11 9 8 6 5 5 4 4 5 4 3 3 4 4 3 1 1 2 2 2 5 7 8 9 12 13 12 12 12 12 12 11 11 12 12 12 13 13
5 12 18 22 22 21 20 18 18 17 17 17 16 15 14 14 14 13 13 13 12 12 12 12 11 11 10 10 9 9 10 10 10 11 12 13 15 17 18 18 18 17 16 15 14 13 12 10 8 7 6 5 4 4 4 5 5 3 3 3 3 3 4 3 2 3 4 5 7 8 10 12 12 12 11 11 11 11 11 11 12 12 12 12 12
5 6 12 19 21 21 21 20 18 18 18 17 16 15 14 14 14 14 13 13 13 13 13 12 12 11 11 10 10 9 9 10 10 11 11 13 15 16 17 17 17 16 15 14 13 12 10 9 7 6 5 5 4 4 4 5 5 4 4 3 3 3 4 2 2 3 4 6 7 8 9 11 11 11 11 11 11 10 10 11 11 11 12 12 12
5 5 8 15 19 20 21 20 19 18 18 17 16 15 14 14 14 14 13 14 13 13 13 13 12 11 11 11 11 10 10 10 10 10 11 12 13 15 16 16 16 15 14 13 12 10 9 8 6 6 5 5 5 4 5 5 5 4 4 4 4 4 4 2 2 3 5 7 7 7 8 10 10 10 10 11 11 10 11 11 10 10 11 12 12
5 7 9 12 17 20 21 20 20 19 18 17 16 16 15 15 15 14 14 14 14 13 13 13 13 12 12 12 12 11 10 10 10 10 10 11 12 13 14 14 14 14 13 11 10 9 8 7 6 6 6 5 6 6 6 6 6 5 4 4 4 5 4 2 3 4 6 7 6 7 8 10 9 10 10 11 11 10 10 10 10 10 11 11 11
6 8 9 12 16 20 21 20 19 18 17 16 16 17 16 16 15 14 14 14 14 14 13 13 13 13 13 13 13 12 11 11 10 10 10 10 11 11 12 12 12 12 11 10 9 9 8 7 7 6 6 6 7 7 7 7 6 5 4 3 4 4 3 4 4 4 6 6 6 7 8 8 9 9 9 9 10 10 10 9 10 10 10 10 10
9 9 9 12 17 21 21 19 19 17 16 16 16 16 16 16 15 15 15 14 14 14 14 14 14 14 14 14 14 13 12 11 10 10 10 10 10 10 10 10 10 10 10 9 9 8 8 7 7 6 6 8 8 8 7 7 5 5 3 3 4 3 4 4 4 5 6 6 7 7 7 7 8 8 8 8 8 9 9 9 9 9 9 9 9
13 11 9 12 18 21 20 18 18 17 16 16 15 15 15 16 15 16 15 15 15 15 15 15 15 15 15 15 14 14 13 12 11 10 10 11 11 11 10 10 10 10 9 9 8 8 7 7 7 6 8 10 9 8 7 6 5 4 3 4 4 3 4 3 3 5 6 6 7 6 6 7 7 7 7 7 7 8 9 9 9 9 9 8 8
16 13 11 14 18 19 17 16 16 16 17 15 14 14 14 15 15 16 15 15 15 15 16 16 16 16 15 15 14 14 13 12 11 11 10 10 11 11 11 10 10 9 9 8 8 8 8 7 7 8 10 11 9 8 7 6 5 3 3 5 4 3 3 3 4 5 5 5 6 5 6 6 5 6 6 7 7 7 8 9 9 9 8 8 8
17 14 12 15 17 17 14 14 15 15 16 15 14 13 13 14 15 16 15 15 15 16 16 16 17 17 16 15 13 13 13 12 12 11 10 10 10 10 10 10 10 10 9 9 9 9 9 9 9 10 10 10 8 8 7 5 4 3 4 5 3 3 2 3 4 5 5 5 5 5 6 4 3 4 5 6 7 6 7 8 9 9 7 7 7
16 14 14 16 17 16 13 13 15 15 15 15 13 13 13 13 15 16 15 16 16 16 17 18 18 18 16 14 13 12 12 13 13 12 11 10 10 10 10 10 11 11 11 10 10 10 10 10 10 10 8 7 7 7 7 5 4 5 6 5 2 2 2 3 4 4 4 5 6 6 4 2 1 3 4 5 6 6 7 7 7 7 7 8 8
16 16 17 16 16 15 12 12 14 16 14 14 13 13 13 12 14 16 16 16 16 17 18 18 19 18 16 14 13 12 12 12 11 11 11 11 11 11 11 11 12 11 11 11 11 11 10 10 10 9 7 6 6 6 6 4 4 6 6 3 1 0 2 3 4 4 4 5 6 4 3 2 1 2 3 4 5 5 5 5 6 6 8 11 13
18 17 17 16 16 15 13 12 13 16 14 13 13 13 12 11 13 15 16 16 17 18 19 19 18 17 16 14 14 13 12 11 9 9 9 11 11 11 12 11 11 11 11 10 10 11 10 10 10 9 7 7 7 6 6 5 5 6 6 2 2 1 1 2 3 4 4 4 4 4 3 2 1 2 2 3 4 5 6 7 8 9 12 15 18
19 17 17 17 17 17 15 13 13 15 15 14 13 13 12 11 14 16 16 16 18 19 19 19 18 17 16 15 14 13 12 10 9 10 9 10 10 11 12 12 12 11 11 10 10 11 10 9 9 8 8 7 6 5 6 6 6 7 5 3 3 1 1 2 3 3 4 4 4 4 3 2 2 3 4 5 7 8 9 11 12 14 16 17 18
20 17 17 18 18 18 17 15 13 14 15 15 14 14 12 11 13 16 16 17 18 19 19 20 19 17 16 15 13 12 10 9 8 9 9 9 10 11 12 12 12 11 11 11 11 10 9 9 9 8 8 7 5 5 6 6 7 7 6 5 4 2 1 2 3 3 4 4 4 4 4 3 4 5 7 8 9 10 11 11 13 14 15 16 15
21 18 17 19 20 20 19 17 14 13 16 16 15 15 14 13 13 15 17 17 18 19 20 20 19 18 16 14 12 11 9 8 8 9 8 9 11 11 12 12 13 12 11 12 11 10 9 9 9 10 9 8 6 6 6 7 8 8 7 6 5 4 3 4 4 4 4 4 4 4 4 5 6 7 9 10 11 11 11 11 12 12 13 13 14
22 22 21 21 22 22 20 17 14 14 17 18 16 15 14 13 13 14 16 16 17 19 21 21 20 18 16 13 12 11 10 10 10 9 9 10 11 12 12 12 13 13 12 11 11 10 9 9 10 12 10 8 7 7 6 6 7 8 8 7 6 5 5 6 5 5 4 4 5 6 6 6 8 9 10 11 10 10 11 11 11 12 12 12 13
25 25 23 23 24 23 21 19 16 17 19 18 16 15 13 13 13 14 15 16 16 19 22 21 18 16 15 14 12 11 11 11 11 10 10 10 11 12 12 13 13 13 12 12 11 10 10 11 12 13 11 9 6 5 5 6 7 7 8 7 6 6 6 6 6 5 6 7 8 7 7 8 9 9 9 9 9 10 11 12 12 12 12 12 13
27 26 25 26 26 24 23 20 18 19 20 19 17 15 13 12 13 12 14 15 14 18 21 19 17 17 17 15 13 12 11 11 11 11 11 10 11 11 12 13 13 12 12 11 11 11 11 13 14 13 11 8 6 5 6 7 7 7 7 6 6 6 6 6 7 8 9 10 10 9 9 10 11 9 8 8 8 10 11 11 12 12 12 12 12
27 27 27 28 27 27 25 23 22 22 21 20 18 16 14 14 13 12 13 15 14 15 18 17 17 18 18 16 14 12 11 12 12 11 11 10 10 11 11 12 12 12 12 11 10 11 12 15 16 14 12 9 7 8 8 9 9 8 8 7 8 8 8 8 9 11 12 11 10 10 10 11 10 9 8 8 8 9 10 11 11 10 11 12 12
29 29 28 27 28 28 26 25 25 24 23 21 19 18 16 16 15 14 15 16 15 15 17 18 18 18 18 17 15 13 12 13 12 12 12 11 10 10 12 12 12 12 12 12 11 12 14 16 17 14 13 11 10 11 10 10 10 10 10 10 11 10 11 11 11 12 12 11 11 11 12 11 9 8 8 8 9 9 10 9 9 9 9 10 11
31 29 27 28 28 27 26 26 26 25 24 23 21 21 20 19 18 17 17 19 19 17 18 18 17 17 18 17 15 13 13 13 12 13 13 13 11 11 12 13 13 13 13 13 13 14 15 18 17 14 13 13 12 12 12 11 11 11 11 11 11 11 11 11 11 11 10 10 11 11 10 9 8 7 7 7 8 8 8 8 8 9 8 8 9
31 29 28 29 28 26 26 25 26 25 24 25 24 24 24 22 21 20 20 21 20 19 19 19 18 19 19 18 16 14 13 13 13 13 13 14 13 12 13 13 14 13 14 14 14 15 16 18 17 13 13 13 13 15 14 13 12 12 12 12 12 12 11 10 9 9 8 8 8 7 7 7 7 7 7 7 7 7 7 8 8 9 8 8 9
31 29 27 27 27 25 25 25 25 24 24 27 27 25 25 24 23 22 22 22 20 19 20 20 20 20 19 18 16 15 15 14 13 13 13 14 14 13 13 14 14 14 15 16 16 16 17 18 16 13 13 13 15 16 14 12 12 11 11 10 10 10 9 9 8 8 6 5 5 4 4 5 6 6 7 7 7 7 7 8 8 9 9 9 9
31 30 28 27 26 25 25 25 25 25 25 28 29 26 26 25 24 23 23 22 20 20 21 22 22 20 18 17 16 15 14 14 14 13 13 14 14 13 14 14 14 15 16 17 17 18 18 17 15 14 14 14 15 15 13 11 10 10 9 9 9 9 9 8 7 6 5 3 3 4 4 4 4 5 5 5 6 7 7 8 9 9 10 9 8
31 31 29 29 28 26 26 27 27 27 26 30 32 30 28 27 26 25 24 24 23 23 23 23 23 21 19 18 16 16 14 14 14 14 14 14 14 14 14 14 14 16 17 17 17 17 17 16 16 16 16 15 14 13 12 11 10 9 9 9 9 9 8 6 5 5 4 2 2 3 3 3 3 3 2 3 5 6 6 7 9 9 9 8 8
32 32 32 32 31 29 29 29 29 29 29 31 35 34 32 31 30 28 26 26 26 25 25 25 24 21 19 18 17 16 15 14 14 14 15 15 15 15 15 15 15 16 17 17 16 16 17 16 16 18 19 18 16 14 13 12 11 10 10 10 10 9 7 5 4 3 2 1 1 2 2 2 3 2 2 4 4 4 5 6 7 9 9 9 9
35 34 34 33 33 32 31 31 31 31 30 32 35 36 34 32 31 29 28 28 27 26 26 26 24 21 19 18 17 16 15 14 14 14 15 15 16 16 16 16 16 16 17 16 15 16 18 18 16 17 20 20 17 16 15 13 12 10 10 12 11 10 8 6 4 2 1 1 1 2 3 4 4 4 3 4 4 3 4 5 6 8 9 9 9
35 35 35 34 34 34 33 32 32 31 31 32 34 36 34 32 30 29 28 29 27 26 26 25 23 22 20 18 17 17 15 15 15 15 16 16 17 17 17 17 17 17 17 16 16 17 19 18 15 16 20 20 17 17 16 14 12 10 11 12 12 11 9 8 6 4 3 2 2 3 3 5 6 6 4 4 4 3 3 4 6 8 10 9 9
35 36 36 36 36 36 34 33 32 31 31 32 33 35 34 31 29 29 29 29 27 27 26 25 24 22 20 19 18 17 16 16 17 17 17 18 18 18 18 18 17 17 17 17 18 19 19 17 15 16 20 22 20 18 17 14 13 13 13 12 12 12 11 10 9 7 5 4 4 4 4 5 7 7 5 4 5 3 4 4 7 9 10 10 11
37 37 37 38 38 36 34 33 33 32 32 33 33 34 34 32 31 32 31 30 29 28 28 27 25 24 21 20 19 18 18 18 18 18 18 19 19 19 18 18 18 18 18 18 19 19 19 18 17 17 19 21 21 20 19 17 16 15 13 11 10 11 11 11 11 9 7 6 6 6 7 6 5 5 4 4 5 4 5 7 9 10 11 11 13
38 38 37 38 38 35 34 34 34 33 33 33 34 34 35 34 34 35 35 33 32 32 31 29 27 25 23 21 19 19 19 19 19 18 18 19 19 19 18 18 17 18 18 19 19 19 19 19 19 19 20 20 19 20 20 18 18 17 15 13 10 8 10 12 13 12 10 9 8 7 7 4 1 4 4 2 4 4 5 8 11 12 12 13 14
39 40 39 38 37 35 34 35 35 34 34 34 34 34 35 35 35 35 35 34 34 33 30 28 27 25 23 21 20 20 20 19 19 18 19 19 19 18 17 17 17 17 17 18 19 20 20 20 20 20 21 20 20 20 20 19 19 19 18 16 13 8 8 10 13 13 12 12 11 8 5 4 3 5 5 2 2 3 4 8 11 12 14 15 15
41 43 42 40 38 36 34 34 35 35 34 34 35 35 36 36 35 34 34 33 32 31 29 28 27 24 22 22 22 21 21 20 19 19 19 19 19 18 17 17 16 16 17 19 20 20 20 21 21 22 22 22 22 21 20 19 19 18 17 17 16 12 9 9 10 10 10 11 12 11 8 6 4 3 4 4 2 3 5 9 10 10 11 13 15
44 45 44 42 39 36 34 34 34 35 35 35 35 35 36 36 35 34 33 33 31 29 28 28 26 24 23 23 23 22 22 21 20 20 20 19 19 18 18 18 17 18 19 20 20 20 21 20 20 21 22 22 22 21 20 20 18 18 18 17 17 15 13 11 11 11 9 9 11 12 12 8 5 3 3 4 4 5 7 8 8 7 8 10 14
47 46 45 43 39 36 35 34 35 35 35 35 35 36 36 36 35 34 34 33 32 30 29 28 26 25 24 24 24 24 23 22 21 21 20 20 20 19 19 18 18 19 20 21 21 20 20 18 18 19 20 20 20 20 20 20 19 19 19 19 19 18 17 16 15 14 12 10 8 10 11 9 6 4 2 4 5 6 7 5 4 3 6 9 12
48 48 47 43 39 36 35 35 35 36 36 36 35 36 37 37 36 35 34 33 32 31 31 30 27 26 25 25 25 26 24 23 22 22 21 21 21 20 19 18 18 19 20 21 21 20 20 18 17 18 19 19 20 20 20 19 18 18 20 20 19 19 19 19 17 15 14 12 9 9 11 9 7 5 3 4 5 5 4 3 2 1 5 8 12
Wind_Direction
177 181 182 170 165 167 161 157 154 152 148 148 149 143 138 132 128 121 117 116 114 109 99 92 85 80 77 75 74 74 81 94 112 128 137 142 141 137 133 128 124 130 137 133 135 137 138 135 130 130 127 124 119 114 109 105 99 92 86 80 76 74 75 70 65 62 61 61 57 51 43 39 36 32 28 27 24 21 21 25 28 25 25 25 23
170 175 180 171 167 168 164 160 156 154 150 150 152 147 140 134 128 123 123 121 117 110 99 89 83 76 71 65 66 72 84 101 112 122 125 122 126 130 127 126 128 136 138 134 136 135 137 136 133 132 129 125 119 114 110 105 99 92 87 82 79 78 74 67 60 56 55 55 51 46 42 37 34 32 29 26 23 20 20 22 25 23 23 24 22
167 171 176 171 170 171 167 162 158 156 153 153 155 152 143 135 131 127 127 124 119 107 99 92 86 76 66 63 68 76 88 105 113 120 118 113 119 123 124 127 131 136 137 136 135 134 137 137 136 134 130 125 121 117 111 103 98 92 87 81 80 78 73 65 57 50 48 47 43 39 38 35 30 30 28 24 22 22 22 22 23 21 20 20 20
173 171 174 172 171 173 171 165 160 158 156 155 158 156 145 138 132 130 130 127 120 107 101 96 89 78 70 75 79 79 88 104 112 117 111 106 113 118 124 127 131 136 137 135 135 136 138 139 137 135 131 127 124 117 108 100 94 88 83 79 80 80 76 67 58 51 45 42 39 34 34 31 26 27 25 22 21 22 23 23 21 19 19 19 20
180 176 176 173 172 175 174 168 162 160 159 157 160 158 147 142 135 131 132 130 122 110 105 100 92 83 79 85 87 83 87 101 108 110 108 106 107 110 119 124 131 136 136 136 137 139 140 140 138 135 132 128 122 113 104 97 92 87 81 78 81 81 75 65 59 54 46 41 37 30 30 27 23 25 22 19 20 22 23 22 20 17 17 19 22
189 186 183 179 175 176 176 170 165 162 160 159 160 159 151 145 138 135 134 135 125 113 109 104 94 88 88 89 91 88 87 102 112 109 106 108 106 109 117 124 132 135 136 138 140 142 143 142 140 137 131 126 119 110 103 97 94 90 87 86 87 84 76 66 57 50 44 39 36 29 26 24 21 21 18 17 20 21 21 19 18 16 13 15 19
198 196 194 188 180 177 177 172 167 163 161 161 161 159 154 148 142 139 139 138 127 117 112 105 97 95 96 95 94 92 91 103 120 116 109 110 112 119 127 128 133 136 138 141 143 145 145 144 141 137 131 125 118 111 105 100 97 94 95 97 98 95 85 75 59 39 36 35 32 28 24 23 17 14 13 16 20 20 18 15 15 13 9 10 13
198 199 197 192 185 179 178 175 169 164 162 162 163 161 155 151 146 143 142 139 128 121 114 105 100 98 99 97 96 96 96 102 120 122 117 121 127 136 137 135 138 140 142 144 146 147 147 146 142 137 131 125 119 114 108 102 99 98 100 103 106 106 102 91 68 21 23 30 26 26 22 19 13 8 10 16 20 19 17 13 11 9 7 9 11
195 197 194 189 186 181 178 176 171 165 164 164 164 163 158 152 149 147 144 139 130 124 116 108 101 99 99 100 100 100 100 101 112 119 123 130 135 139 138 140 143 143 146 148 149 149 149 147 143 138 132 127 122 116 109 103 99 101 105 106 107 108 109 106 93 352 8 25 23 22 18 14 8 3 6 14 19 18 15 11 9 7 7 8 11
192 191 190 188 186 182 179 177 172 168 166 165 166 164 161 155 151 149 145 140 133 128 120 111 103 98 100 104 105 103 102 101 108 116 125 132 135 138 141 144 144 145 149 151 151 150 150 147 144 139 134 131 125 118 109 102 97 103 112 111 111 108 106 117 118 337 345 8 20 16 11 10 2 358 5 12 15 14 12 9 8 7 7 7 10
191 190 190 190 186 182 179 177 173 170 168 165 167 166 163 158 154 152 146 142 136 130 123 114 106 102 103 108 109 107 104 104 109 116 125 133 136 141 145 145 144 146 151 152 152 151 150 148 146 142 139 135 127 117 107 99 96 107 118 118 117 93 65 89 87 339 336 358 19 11 5 5 358 358 5 9 10 9 7 6 7 9 9 8 11
196 196 193 192 187 181 178 177 174 171 170 167 168 168 165 161 157 154 147 143 138 131 125 118 113 108 109 112 114 113 108 107 112 118 126 135 139 143 146 147 146 148 152 154 153 152 151 150 148 146 143 138 129 117 105 97 97 112 127 130 130 70 26 21 29 44 35 35 30 7 4 3 357 359 3 5 5 4 3 5 8 9 9 11 15
206 201 196 192 184 180 178 176 176 173 171 168 169 169 167 164 161 156 149 143 138 133 129 124 121 117 116 118 120 117 113 111 114 120 127 135 140 144 148 149 149 150 153 155 155 154 153 152 152 150 146 139 128 117 106 97 100 119 142 145 148 78 27 21 41 66 56 41 21 6 7 3 357 358 1 3 3 1 3 4 6 7 8 11 15
204 195 191 188 182 177 176 177 176 174 172 170 170 169 169 166 163 159 150 143 138 137 135 132 128 124 121 121 124 121 118 117 117 122 127 133 138 144 150 151 151 152 154 157 157 157 156 156 156 153 148 139 127 118 107 102 110 129 157 167 170 126 41 17 36 61 48 24 8 8 8 1 356 356 359 1 0 358 360 360 0 4 7 9 13
186 185 185 185 182 176 175 178 176 174 173 171 172 171 169 167 164 160 150 144 143 143 142 139 133 128 125 123 127 126 122 123 123 125 129 134 138 144 150 152 153 155 157 159 160 160 160 160 159 156 146 135 127 119 111 111 123 140 168 182 186 178 200 266 306 350 12 6 2 3 359 355 354 354 359 359 356 355 356 355 357 2 2 3 11
160 179 184 184 183 178 175 177 177 175 174 172 173 171 168 167 163 158 150 148 150 150 147 143 138 131 129 127 130 131 127 128 129 131 132 136 140 145 151 154 156 158 160 162 164 164 164 163 160 153 141 137 133 123 120 118 131 157 180 185 186 194 224 247 306 330 343 353 353 350 348 350 351 353 356 354 352 354 353 351 356 360 355 358 9
164 177 186 187 186 180 177 177 176 174 174 174 173 171 168 166 164 159 154 154 156 154 151 146 141 135 133 133 133 134 132 132 135 136 136 139 143 148 153 156 159 161 163 165 166 167 164 162 156 150 146 145 139 130 128 126 141 166 176 176 177 200 228 247 313 330 346 353 348 343 344 347 347 350 352 349 351 354 350 351 359 358 352 357 7
186 195 192 191 191 184 180 177 176 175 176 176 174 171 168 167 166 164 159 159 160 157 154 149 144 140 138 137 136 137 136 136 138 141 141 142 147 152 157 159 161 163 165 167 166 166 163 158 154 154 155 149 136 131 132 138 152 164 166 166 177 208 225 233 294 338 359 355 348 341 342 343 343 348 348 347 350 352 351 354 358 355 356 2 7
199 206 203 199 196 189 183 180 179 177 177 177 174 170 169 170 168 166 162 161 162 159 156 151 147 145 143 140 138 139 139 140 141 143 144 145 150 153 158 160 162 164 166 168 166 164 161 158 161 163 160 150 137 132 135 143 153 158 157 160 187 223 239 266 307 355 3 352 348 339 338 339 341 346 347 349 352 355 356 358 2 2 4 7 8
192 195 203 205 200 193 186 183 181 177 177 178 174 169 169 170 168 167 165 164 163 162 159 154 152 149 145 141 139 141 142 145 145 146 147 150 155 157 160 160 160 164 167 168 167 165 164 165 170 170 165 150 138 133 135 140 149 150 144 165 211 239 271 306 332 5 5 352 343 333 334 338 343 349 351 355 1 3 1 4 9 9 10 11 12
185 181 194 202 198 193 187 183 180 175 176 177 175 171 170 170 169 169 168 167 166 166 164 159 157 152 146 143 142 144 145 147 147 148 151 154 157 160 163 163 162 165 168 169 169 169 169 174 177 176 167 151 138 134 136 140 150 146 142 203 235 258 298 319 349 357 355 347 335 334 338 342 349 357 2 5 10 10 7 9 12 12 15 17 15
192 181 186 194 193 191 186 183 178 173 174 176 174 171 172 172 171 172 170 170 169 169 168 163 159 153 148 147 147 148 148 146 147 150 155 160 162 164 165 167 168 168 171 172 173 174 175 181 180 174 163 153 143 141 145 147 157 153 167 230 249 289 327 347 359 342 340 338 332 339 343 345 356 5 11 13 15 16 15 14 13 11 12 13 9
196 187 183 184 189 187 182 183 181 175 174 173 171 170 173 174 173 172 171 172 172 172 169 164 159 154 151 151 151 151 149 148 149 152 158 166 168 170 169 169 173 174 176 176 178 178 178 181 173 162 159 160 158 159 164 163 166 166 213 238 263 307 343 1 351 335 329 327 326 332 338 345 4 17 20 19 18 17 21 20 15 11 9 9 7
195 188 180 174 177 178 177 183 185 179 173 170 168 167 170 174 176 172 172 174 174 174 170 165 160 156 155 154 155 154 152 152 151 155 160 167 170 171 171 172 176 177 177 178 178 174 174 174 166 161 162 166 169 175 182 182 181 200 235 236 264 305 346 355 338 334 325 319 314 319 330 347 19 29 24 18 16 14 19 21 16 12 8 7 8
192 183 178 172 170 171 173 180 185 181 173 170 166 165 168 173 177 174 174 176 175 175 171 168 163 160 162 161 160 157 156 157 154 156 161 168 169 167 168 172 175 174 174 174 172 168 169 171 167 167 169 171 176 187 190 185 187 206 231 236 265 307 3 349 335 335 322 313 310 311 323 338 25 23 22 18 13 15 18 16 15 14 2 356 354
194 189 181 175 173 176 180 183 184 182 176 171 168 169 170 172 178 177 177 177 176 176 173 171 169 168 171 170 167 166 166 164 160 160 166 173 171 168 169 171 172 171 171 169 166 163 164 171 173 173 178 179 177 185 182 163 166 198 222 231 216 78 35 350 338 331 312 308 311 313 316 309 303 351 18 16 3 7 7 358 3 0 346 340 336
201 198 186 180 181 184 190 192 185 181 178 173 173 174 174 178 182 182 180 178 177 178 177 176 175 177 178 175 173 176 175 169 165 166 175 180 176 175 173 172 174 173 172 170 168 168 166 172 176 175 181 177 167 167 165 151 151 194 217 190 150 124 55 348 334 319 306 309 313 310 305 306 303 313 325 324 328 333 327 322 325 322 320 322 323
204 202 193 188 188 191 196 199 189 181 182 179 176 173 176 184 186 186 181 179 180 181 182 181 182 182 181 179 176 178 177 173 173 175 182 185 182 182 180 176 178 179 178 175 174 176 176 178 176 173 176 174 167 158 152 148 158 194 204 149 145 134 65 316 313 307 309 313 309 305 299 306 318 321 316 314 317 317 314 312 315 315 314 317 321
203 204 198 195 195 197 200 201 192 184 187 188 181 173 175 177 179 184 181 179 182 183 184 184 185 184 185 185 180 178 177 178 185 188 189 188 189 191 189 185 183 183 182 180 177 176 178 178 172 163 168 172 172 161 150 155 169 191 187 146 148 155 198 263 288 304 314 305 299 305 308 318 324 325 323 320 319 316 314 313 314 316 318 323 330
200 205 202 200 201 201 202 203 198 194 195 194 188 179 176 170 167 176 179 178 181 184 185 189 190 187 188 187 183 184 182 188 201 207 203 198 199 199 196 192 189 188 186 185 182 179 176 172 162 159 170 174 177 182 169 166 174 182 178 160 163 177 222 262 292 314 324 313 306 314 319 328 327 324 323 322 322 321 321 321 324 328 331 337 343
197 203 203 202 203 204 205 204 203 204 203 199 191 183 177 169 164 168 173 175 181 187 189 193 193 189 191 190 189 194 194 199 209 217 212 206 206 204 200 198 195 192 190 191 186 180 176 169 160 163 175 176 180 192 180 181 185 178 176 174 182 207 248 271 293 312 328 328 319 318 320 323 321 324 326 326 328 330 335 337 339 342 345 349 351
195 199 202 201 202 204 205 204 205 207 206 202 194 187 182 174 170 171 172 174 182 188 190 192 190 190 197 198 199 204 204 207 210 213 212 211 210 207 206 203 200 197 195 193 187 178 174 170 165 169 180 176 178 192 183 192 193 179 181 187 203 235 258 269 285 298 312 319 319 318 320 325 326 331 333 335 336 338 343 345 346 349 353 356 357
193 195 199 200 201 204 205 203 206 208 207 206 201 195 192 185 181 183 180 178 182 185 187 188 188 196 205 205 207 210 209 211 209 206 209 214 211 208 208 205 201 200 197 192 189 183 176 174 170 172 179 176 180 195 194 194 188 184 195 214 229 242 254 266 282 296 309 313 317 320 325 331 334 339 343 343 341 341 347 353 354 355 359 1 4
192 190 194 199 201 203 204 203 207 210 207 206 207 203 202 198 193 197 194 187 188 188 189 192 194 201 207 210 211 211 213 213 211 209 215 219 214 209 208 204 201 201 198 192 191 188 184 182 177 174 176 177 186 194 201 198 190 194 205 223 235 242 255 271 286 299 307 309 315 322 328 333 335 340 343 345 345 345 353 3 3 359 4 9 12
195 191 193 197 199 201 204 204 208 209 205 207 208 204 209 209 201 207 208 194 192 196 199 201 203 205 209 213 214 214 216 214 212 215 222 223 216 209 206 202 200 202 201 195 192 192 190 185 179 176 176 182 193 196 203 206 200 204 210 219 230 242 256 270 286 295 301 306 314 320 325 330 332 338 340 341 348 351 357 8 15 11 12 17 18
198 195 194 195 195 198 203 205 207 207 206 206 204 202 211 213 205 212 212 197 194 199 204 208 211 210 209 215 221 222 218 212 209 212 218 221 216 208 204 204 203 204 204 200 195 195 192 184 182 182 182 188 199 201 205 211 212 216 222 229 235 244 255 267 279 284 288 299 310 315 321 326 329 337 342 344 349 354 1 9 24 28 25 24 26
199 197 195 194 193 195 201 205 207 207 207 206 202 203 209 208 204 209 206 197 197 201 207 214 219 214 210 216 225 228 222 214 209 208 214 218 213 205 205 209 207 205 204 203 201 199 196 192 190 191 195 203 209 209 209 212 218 226 234 239 243 246 252 261 264 263 273 291 304 308 312 319 327 337 344 351 354 360 10 15 26 38 40 35 33
199 198 200 199 196 196 200 204 208 210 208 207 204 203 207 204 202 206 202 200 204 206 211 219 221 217 215 219 225 227 224 219 212 210 216 218 212 205 209 212 210 205 200 203 205 201 199 200 199 200 205 211 212 210 211 215 224 234 239 244 246 245 245 249 251 256 273 294 303 305 305 315 329 341 344 348 356 5 21 28 31 39 42 40 36
198 198 201 202 199 199 201 203 209 211 209 208 205 203 205 205 204 203 201 205 208 210 216 220 219 217 218 222 224 224 223 220 215 215 220 221 215 210 211 212 212 208 201 201 202 198 199 201 202 205 205 205 208 211 215 225 234 239 246 251 244 237 238 244 254 272 288 293 294 300 306 320 337 349 346 348 3 12 24 35 38 41 43 45 41
199 198 200 202 202 201 202 204 208 211 209 207 205 204 205 206 205 202 201 207 211 215 219 218 217 217 220 223 222 222 222 218 216 218 222 222 218 213 210 210 212 211 207 205 202 202 208 208 206 212 213 209 207 214 226 234 239 242 249 249 237 230 234 243 263 283 290 285 307 314 311 322 341 352 3 13 19 23 30 40 44 46 48 50 48
201 201 202 204 204 203 204 204 206 209 209 208 206 205 206 206 205 202 202 207 211 217 217 215 216 218 220 221 220 222 222 218 217 218 219 218 214 211 211 212 213 214 214 213 210 213 220 217 213 219 224 222 217 219 227 230 233 238 235 224 219 221 217 219 246 276 298 312 330 326 318 321 335 350 38 48 40 38 42 53 60 55 53 49 47
204 205 206 206 206 206 207 206 205 207 210 211 209 207 208 207 206 205 204 208 213 216 215 213 216 218 219 220 221 223 222 220 218 216 216 215 211 209 212 217 218 218 218 219 220 224 227 226 222 223 225 226 226 225 222 225 232 235 224 208 200 203 202 206 220 227 261 290 310 319 339 349 354 4 30 48 59 81 69 67 75 67 56 49 46
205 206 208 208 207 206 207 207 206 208 211 213 213 211 210 209 209 209 207 210 214 214 214 215 217 217 217 219 222 224 223 220 217 215 214 214 212 211 214 218 219 219 220 221 224 226 229 231 228 226 224 221 221 222 219 226 227 210 200 199 195 191 193 204 206 197 225 266 299 305 327 343 351 358 0 23 46 103 118 79 75 72 61 52 47
206 207 207 208 207 206 207 208 208 210 212 214 215 215 213 209 209 211 211 213 214 212 212 216 218 218 217 218 220 222 222 219 216 215 214 215 215 214 217 220 219 219 221 222 224 223 225 230 231 231 227 221 216 212 213 221 217 201 193 191 191 193 196 203 204 200 210 241 269 276 295 323 337 346 345 357 18 66 122 90 70 66 58 51 44
208 210 210 210 208 206 208 210 210 212 214 215 215 215 213 208 206 209 211 213 213 212 212 213 216 218 218 218 217 218 218 217 217 217 217 218 217 216 218 218 218 220 221 222 225 226 227 231 237 237 231 225 218 212 212 215 212 210 208 198 190 200 210 207 201 200 203 217 238 254 276 300 323 344 358 355 4 48 95 83 66 57 49 42 35
210 213 214 212 209 207 210 211 211 212 215 216 215 214 213 209 206 207 209 210 210 212 214 214 215 217 218 217 214 214 215 217 220 221 221 220 219 220 220 220 221 222 223 225 229 233 233 232 237 238 231 226 220 217 218 218 213 212 217 217 211 216 222 209 198 194 194 206 221 234 258 268 353 31 38 22 6 39 73 70 58 47 37 31 24
211 213 212 211 209 208 211 212 211 212 214 215 215 214 213 210 209 209 211 212 211 212 215 216 216 217 216 215 214 214 215 218 221 223 223 221 220 223 225 226 227 227 230 234 235 236 235 234 233 229 226 224 221 221 224 225 222 217 216 219 222 230 236 221 210 201 195 203 210 207 211 200 129 60 50 49 21 19 47 56 49 35 24 18 12
210 210 210 209 207 208 210 211 211 212 214 215 215 214 213 211 211 213 215 217 217 217 217 217 217 218 215 215 216 216 217 218 219 222 224 223 224 225 229 233 236 239 241 242 240 237 236 234 229 223 221 222 224 226 228 230 230 227 222 218 220 228 233 227 225 223 212 208 206 199 194 189 160 76 53 60 55 22 38 47 41 27 12 4 358
210 211 210 207 206 206 209 211 211 211 213 215 215 214 214 213 213 216 217 217 219 222 222 219 217 217 216 215 215 217 218 217 218 221 224 226 229 229 233 238 242 245 246 245 244 240 237 233 226 222 221 222 226 230 230 232 232 232 230 223 221 225 222 215 214 218 218 214 209 204 200 195 185 155 72 67 64 48 49 46 39 26 0 349 345
209 211 209 205 203 204 208 211 211 211 213 215 215 215 215 214 216 218 219 217 218 221 222 220 218 218 217 215 215 218 219 220 221 222 224 228 233 235 237 240 243 245 245 245 245 242 239 234 226 225 226 226 229 230 230 232 233 234 235 231 228 225 218 214 213 210 211 213 206 198 198 200 192 174 111 75 66 60 61 54 46 25 345 338 337
207 208 206 204 203 204 208 211 210 211 213 215 215 216 216 215 217 220 221 220 220 222 221 219 219 219 218 217 218 219 221 223 226 227 228 229 234 237 238 240 243 244 243 243 244 241 237 234 228 225 227 228 230 231 231 234 238 238 235 232 230 225 221 223 224 219 217 217 209 188 182 185 183 176 141 94 85 85 96 106 107 13 335 331 332